Location: Bun
(42.9667°N, 0.1500°W)
Time: 22:37:20
(UTC+00:00)

Daily predictions for brighter satellites

Satellite Brightness Start Highest point End
(mag) Time Altitude Azimuth Time Altitude Azimuth Time Altitude Azimuth
CZ-4B R/B 3.8 20:07:44 10° S 20:12:53 56° W 20:18:08 10° NNW
Okean O Rocket 1.8 20:10:35 10° S 20:14:59 74° WSW 20:19:23 10° NNW
SeaSat 1 3.3 20:13:02 10° ESE 20:17:31 37° NE 20:22:02 10° NNW
EXPRESS MD2 2.5 20:14:48 10° SW 20:18:28 59° SSE 20:20:54 10° ENE
Cosmos 1766 3.2 20:14:52 10° N 20:18:37 62° E 20:22:19 10° SSE
CARTOSAT-1 4.3 20:14:57 10° S 20:19:06 54° W 20:23:19 10° NNW
SL-24 R/B 4.4 20:15:27 10° SSE 20:20:32 86° WSW 20:24:56 10° NNW
CZ-4 R/B 3.8 20:19:00 10° SW 20:22:04 22° W 20:25:12 10° NW
Cosmos 2026 Rocket 4.0 20:16:19 10° S 20:22:31 89° WNW 20:28:39 10° N
Cosmos 1066 Rocket 4.3 20:17:05 10° S 20:22:55 79° E 20:28:44 10° NNE
Cosmos 1470 Rocket 3.6 20:18:46 10° N 20:23:06 63° E 20:27:23 10° SSE
OPS 6432 4.4 20:21:01 10° NW 20:24:05 70° WSW 20:27:24 10° SSE
USA 234 3.2 20:18:11 10° NE 20:24:43 69° SE 20:31:12 10° SW
IRIDIUM 104 4.4 20:22:42 10° N 20:27:54 68° E 20:33:06 10° S
Cosmos 1666 Rocket 4.3 20:26:17 10° NNW 20:30:30 52° W 20:34:43 10° S
Cosmos 2360 Rocket 4.3 20:27:42 10° N 20:30:49 15° NE 20:33:55 10° ENE
Cosmos 2285 Rocket 4.2 20:26:28 10° SSW 20:32:48 79° WNW 20:39:13 10° NNE
Cosmos 2333 Rocket 4.3 20:32:18 10° N 20:35:34 15° NE 20:38:49 10° ENE
Atlas Centaur 2 3.8 20:29:13 10° SW 20:36:16 32° S 20:43:20 10° ESE
IRIDIUM 114 4.3 20:31:49 10° N 20:37:05 82° E 20:42:18 10° S
ERS-1 Rocket 3.5 20:33:11 10° SE 20:37:55 45° ENE 20:42:42 10° N
SL-16 R/B 3.4 20:34:09 10° N 20:39:06 29° NE 20:43:56 10° ESE
Cosmos 1441 Rocket 4.1 20:36:05 10° NNE 20:39:17 29° ENE 20:41:54 14° SE
Resurs 01 Rocket 3.3 20:35:49 10° SSW 20:39:44 31° W 20:43:40 10° NNW
Cosmos 1763 Rocket 3.5 20:35:34 10° NNW 20:40:50 74° ENE 20:45:43 12° SSE
Cosmos 2369 3.8 20:35:12 10° NNW 20:40:59 87° ENE 20:46:32 11° SSE
Lacrosse 5 rocket 3.7 20:39:04 10° W 20:41:27 15° WSW 20:43:47 10° SSW
Cosmos 2082 Rocket 2.4 20:35:51 10° SSW 20:41:34 78° WNW 20:47:18 10° NNE
Spot 2 Rocket 4.3 20:38:13 12° SE 20:42:33 38° ENE 20:47:13 10° N
IRIDIUM 103 4.4 20:40:59 10° N 20:46:14 83° W 20:51:26 10° S
SPOT 5 2.6 20:42:50 10° SSE 20:47:08 86° ENE 20:51:30 10° NNW
Cosmos 1933 Rocket 3.7 20:43:01 10° N 20:47:24 59° E 20:51:18 13° SSE
Cosmos 1470 2.6 20:44:19 10° N 20:47:59 64° E 20:51:09 13° SSE
Cosmos 1908 3.3 20:51:39 10° N 20:55:11 51° E 20:57:41 17° SSE
Cosmos 1674 3.3 20:55:23 10° SSW 20:58:45 50° W 21:02:08 10° N
IRS-1C Rocket 4.1 20:54:03 11° SSE 20:59:09 88° WSW 21:04:27 10° NNW
ATLAS 2AS CENTAUR R/B 4.1 20:55:26 10° NNW 21:01:17 29° NE 21:06:57 10° E
KORONAS-FOTON 4.3 21:01:42 10° SSW 21:05:21 58° W 21:09:03 10° N
Ariane Rocket 3.2 21:03:06 17° SSE 21:06:59 59° ENE 21:12:00 10° N
Cosmos 468 Rocket 4.0 21:02:44 10° NNW 21:08:00 84° ENE 21:11:55 18° SSE
Cosmos 1842 4.1 21:05:20 10° SSW 21:08:52 46° WNW 21:12:25 10° N
COSMOS 2406 4.1 21:09:15 10° SW 21:14:51 53° WNW 21:20:30 10° NNE
SPOT 3 Rocket 3.6 21:12:14 19° SSE 21:15:55 65° ENE 21:21:03 10° N
Meteor 1-13 Rocket 4.3 21:11:39 10° S 21:17:30 87° E 21:23:15 10° N
SL-27 R/B 4.2 21:19:33 12° ENE 21:19:33 12° ENE 21:20:07 10° ENE
Cosmos 1553 Rocket 4.4 21:16:10 10° NNW 21:22:14 62° W 21:28:22 10° S
Cosmos 1980 Rocket 3.6 21:18:38 10° NW 21:23:37 32° WSW 21:28:33 10° SSW
Cosmos 2322 Rocket 3.0 21:18:30 10° NNW 21:23:51 40° ENE 21:27:28 19° ESE
S3M 4.0 21:18:05 10° N 21:24:29 76° E 21:29:06 20° SSE
Cosmos 1655 Rocket 4.2 21:22:56 18° SSE 21:27:45 58° E 21:34:00 10° NNE
SJ 16-02 2.8 21:28:53 19° ESE 21:29:18 20° E 21:32:24 10° NE
Cosmos 2278 3.7 21:27:08 10° NNW 21:32:53 88° WSW 21:36:25 24° SSE
Landsat 5 3.6 21:29:20 10° NNE 21:33:14 51° E 21:35:02 29° SSE
Landsat 4 3.5 21:32:54 29° S 21:34:31 73° WSW 21:37:57 10° NNW
Cosmos 1741 Rocket 4.2 21:31:50 21° S 21:35:08 51° ESE 21:40:15 10° NNE
USA 245 4.0 21:34:18 20° SSW 21:36:11 40° W 21:39:52 10° NNW
Tiangong -1.5 21:34:22 10° W 21:37:19 36° SSW 21:37:28 36° S
Cosmos 2266 Rocket 4.1 21:31:15 11° S 21:37:26 84° W 21:43:52 10° N
USA 281 4.3 21:32:45 15° ESE 21:37:26 35° NE 21:43:14 10° N
Cosmos 1400 Rocket 2.7 21:35:14 21° SSW 21:37:48 85° W 21:41:42 10° N
Cosmos 540 Rocket 4.2 21:33:01 10° NNW 21:37:57 47° WSW 21:41:30 18° S
MetOp-A 4.3 21:37:25 26° SE 21:40:11 57° ENE 21:45:21 10° N
Okean 3 4.3 21:39:26 29° ESE 21:40:26 32° E 21:44:09 10° NNE
Terra 2.4 21:37:48 18° S 21:41:07 52° W 21:45:44 10° NNW
Cosmos 1733 Rocket 3.5 21:38:18 10° N 21:42:35 48° ENE 21:44:16 31° SE
Cosmos 968 Rocket 3.9 21:41:01 28° SSE 21:43:12 42° ESE 21:48:04 10° NNE
Cosmos 2237 4.2 21:38:58 10° NNW 21:44:44 81° WSW 21:47:58 27° SSE
SL-4 R/B 4.2 21:42:57 10° WNW 21:46:13 25° N 21:49:38 10° NE
Cosmos 2228 Rocket 3.1 21:44:42 28° S 21:47:03 72° E 21:51:37 10° NNE
Cosmos 1315 Rocket 4.1 21:51:04 24° E 21:51:17 24° E 21:54:30 10° NE
Cosmos 2219 Rocket 3.6 21:47:32 10° N 21:52:26 29° NE 21:55:47 17° ESE
ATLAS CENTAUR R/B 1.0 21:52:13 50° SE 21:52:34 53° ESE 21:56:03 10° NE
SeaSat 1 3.7 21:51:57 17° SSW 21:54:58 31° WSW 21:59:20 10° NW
Meteor 2-10 Rocket 3.7 21:52:04 10° NNW 21:57:42 81° W 22:00:34 29° S
Cosmos 1953 3.7 21:57:09 10° NNE 22:00:18 23° ENE 22:00:51 23° E
H-2A R/B 4.4 21:59:30 16° E 22:00:57 18° ENE 22:03:53 10° NNE
Cosmos 1455 3.7 22:00:48 10° NNE 22:03:30 20° ENE 22:03:41 20° ENE
Okean 1-7 3.6 22:04:58 36° ESE 22:05:40 39° E 22:09:42 10° NNE
USA 234 4.4 22:01:23 10° NE 22:07:30 44° NNW 22:13:37 10° W
BREEZE-M DEB (TANK) 2.6 22:06:09 10° NW 22:08:17 56° NNE 22:09:09 38° E
CZ-2C R/B 4.0 22:06:38 10° NNE 22:10:52 44° E 22:11:36 40° SE
Cosmos 2315 Rocket 4.3 22:09:12 10° NNW 22:15:31 66° W 22:19:12 26° SSW
Cosmos 2360 Rocket 2.2 22:10:04 10° NNW 22:15:47 78° ENE 22:18:06 37° SE
Cosmos 841 Rocket 4.1 22:13:26 10° NNW 22:18:30 49° WSW 22:20:45 30° SSW
SL-14 R/B 4.2 22:17:25 25° SW 22:19:11 41° WNW 22:22:48 10° N
RESURS DK-1 2.5 22:16:22 10° NNW 22:20:23 61° WSW 22:21:10 50° SSW
Cosmos 2333 Rocket 2.2 22:15:03 10° NNW 22:20:49 78° ENE 22:23:08 38° SE
SL-16 R/B 2.9 22:17:58 10° NW 22:23:21 45° WSW 22:25:47 29° SSW
Atlas Centaur 2 3.6 22:17:41 10° WSW 22:24:45 31° S 22:25:49 30° S
Cosmos 1300 3.6 22:22:53 10° NNW 22:26:11 36° W 22:26:54 33° WSW
Aureole 3 3.6 22:30:50 44° SW 22:31:46 60° WNW 22:36:08 10° N
Cosmos 1703 Rocket 3.8 22:32:44 48° ESE 22:33:16 51° E 22:37:36 10° NNE
Cosmos 1833 4.2 22:30:08 26° SSW 22:33:26 84° WNW 22:39:05 10° NNE
Cosmos 1862 Rocket 4.3 22:32:47 28° SW 22:34:42 47° WNW 22:38:59 10° N
Cosmos 1346 Rocket 3.6 22:32:13 10° NNW 22:35:51 39° W 22:36:35 35° WSW
Meteor 1-4 Rocket 3.0 22:41:49 45° NW 22:41:49 45° NW 22:44:24 10° N
Cosmos 1932 4.4 22:38:31 27° SSW 22:42:14 81° ESE 22:48:32 10° NE
Cosmos 839 Rocket 4.0 22:38:18 10° NNW 22:45:11 80° NE 22:47:42 39° SE
Meteor 1-16 Rocket 4.4 22:39:30 10° NNW 22:45:24 71° W 22:47:38 39° SSW
BlueWalker 3 4.5 22:50:03 11° ENE 22:50:03 11° ENE 22:50:14 10° ENE
Cosmos 2322 4.5 22:41:45 10° NNW 22:47:10 43° ENE 22:49:30 29° ESE
Cosmos 2237 Rocket 4.4 22:44:12 10° N 22:47:51 17° NE 22:51:29 10° E
SL-27 R/B 4.2 22:50:57 19° WNW 22:51:19 19° WNW 22:53:25 10° NNW
ATLAS 2AS CENTAUR R/B 2.6 22:46:04 10° NW 22:52:52 76° WSW 22:55:16 42° SSE
Cosmos 2333 4.2 22:47:21 10° NNW 22:53:08 76° WSW 22:54:50 47° S
ARIANE 5 R/B 2.5 22:54:59 61° SSW 22:55:32 70° WSW 22:59:52 10° NNW
Okean 2 3.9 23:00:22 43° WSW 23:01:00 48° WNW 23:04:53 10° N
PSLV R/B 4.0 22:58:26 10° N 23:02:24 66° WNW 23:02:50 60° WSW
Cosmos 1745 Rocket 4.0 23:05:11 45° S 23:07:16 77° E 23:13:38 10° N
SJ 16-02 2.5 23:05:35 26° WSW 23:07:21 37° WNW 23:11:23 10° N
Cosmos 2322 Rocket 3.3 23:02:48 10° NW 23:07:43 31° WSW 23:09:15 27° SW
Cosmos 1570 Rocket 4.2 23:02:42 10° NNW 23:08:02 66° ENE 23:09:22 48° SE
COSMOS 2455 3.3 23:08:59 39° SE 23:09:34 40° ESE 23:15:07 10° NE
Cosmos 2297 Rocket 3.3 23:13:10 27° ESE 23:13:21 27° ESE 23:18:00 10° NE
Nadezhda 1 Rocket 3.9 23:13:27 10° N 23:19:48 83° W 23:21:42 48° S
Cosmos 1408 3.9 23:22:14 30° NNE 23:22:14 30° NNE 23:23:55 10° NNE
GP-B 3.8 23:17:09 10° N 23:21:21 44° W 23:22:05 40° WSW
USA 281 3.6 23:19:37 38° SSW 23:21:41 51° WSW 23:28:05 10° NNW
SL-4 R/B 4.1 23:22:21 10° NW 23:25:53 28° NNE 23:29:35 10° ENE
COSMOS 2428 2.8 23:20:54 10° NNW 23:26:37 71° ENE 23:28:13 47° SE
ATLAS CENTAUR R/B 3.9 23:28:24 10° WNW 23:30:32 15° NW 23:32:42 10° N
GEOS 3 Rocket 3.9 23:26:33 10° NE 23:31:28 46° ESE 23:31:28 46° ESE
Cosmos 1782 Rocket 3.6 23:29:53 10° NNW 23:34:11 63° W 23:34:15 63° WSW
Cosmos 1242 Rocket 4.5 23:35:32 19° NW 23:35:32 19° NW 23:36:55 10° NNW
CZ-3 Stage 3 4.0 23:10:19 10° W 23:34:56 39° SSW 23:37:06 35° S
H-2A R/B 3.1 23:35:29 45° WSW 23:35:32 45° W 23:39:40 10° NNW
Cosmos 1953 4.0 23:32:58 10° NW 23:35:57 23° W 23:35:57 23° W
Spot 2 4.3 23:35:40 64° S 23:36:25 80° WSW 23:41:31 10° NNW
Cosmos 2219 Rocket 2.6 23:31:09 10° NW 23:36:33 46° WSW 23:37:28 42° SW
Cosmos 1455 4.0 23:35:06 10° NW 23:37:25 21° WNW 23:37:25 21° WNW
Cosmos 2208 Rocket 3.8 23:33:33 10° NNW 23:38:46 90° ENE 23:39:34 65° SSE
Cosmos 371 Rocket 3.3 23:39:00 61° ESE 23:39:08 61° ESE 23:43:53 10° NNE
Cosmos 158 Rocket 3.9 23:35:56 10° NNW 23:41:16 88° ENE 23:42:08 64° SSE
Spot 4 4.2 23:42:36 47° WSW 23:43:01 49° W 23:47:41 10° NNW
Cosmos 836 Rocket 4.4 23:38:27 10° NNW 23:43:41 82° ENE 23:44:34 62° SE
Cosmos 773 Rocket 4.4 23:43:32 10° NNW 23:48:36 55° ENE 23:49:51 43° ESE
ALOS 2 2.8 23:49:16 56° WSW 23:49:18 56° W 23:53:38 10° NNW
Cosmos 2151 Rocket 4.5 23:45:31 10° N 23:49:36 37° ENE 23:50:03 36° E
Cosmos 1503 Rocket 4.1 23:51:55 57° SE 23:52:32 62° ESE 23:57:48 10° NNE
